Time,TemperatureF,DewpointF,PressureIn,WindDirection,WindDirectionDegrees,WindSpeedMPH,WindSpeedGustMPH,Humidity,HourlyPrecipIn,Conditions,Clouds,dailyrainin,SoftwareType,DateUTC
2013-03-14 00:11:00,50.7,50.2,29.94,South,180,0.0,-999.0,98,-99.99,,,0.00,Acu-Link.com,2013-03-14 07:11:00,
2013-03-14 00:56:00,50.0,49.5,29.94,SE,135,0.0,-999.0,98,-99.99,,,0.00,Acu-Link.com,2013-03-14 07:56:00,
2013-03-14 01:11:00,49.6,49.1,29.94,SE,135,0.0,-999.0,98,-99.99,,,0.00,Acu-Link.com,2013-03-14 08:11:00,
2013-03-14 01:26:00,49.3,48.8,29.94,South,180,0.0,-999.0,98,-99.99,,,0.00,Acu-Link.com,2013-03-14 08:26:00,
2013-03-14 01:42:00,48.9,48.4,29.94,South,180,0.0,-999.0,98,-99.99,,,0.00,Acu-Link.com,2013-03-14 08:42:00,
2013-03-14 01:57:00,48.2,47.7,29.94,South,180,0.0,-999.0,98,-99.99,,,0.00,Acu-Link.com,2013-03-14 08:57:00,
2013-03-14 02:12:00,47.7,47.2,29.94,South,180,0.0,-999.0,98,-99.99,,,0.00,Acu-Link.com,2013-03-14 09:12:00,
2013-03-14 02:27:00,47.1,46.6,29.94,South,180,0.0,-999.0,98,-99.99,,,0.00,Acu-Link.com,2013-03-14 09:27:00,
2013-03-14 02:42:00,47.1,46.6,29.94,South,180,0.0,-999.0,98,-99.99,,,0.00,Acu-Link.com,2013-03-14 09:42:00,
2013-03-14 02:57:00,47.1,46.6,29.95,SSE,157,0.0,-999.0,98,-99.99,,,0.00,Acu-Link.com,2013-03-14 09:57:00,
2013-03-14 03:12:00,47.1,46.6,29.94,SE,135,0.0,-999.0,98,-99.99,,,0.00,Acu-Link.com,2013-03-14 10:12:00,
2013-03-14 03:27:00,47.1,46.6,29.94,SE,135,0.0,-999.0,98,-99.99,,,0.00,Acu-Link.com,2013-03-14 10:27:00,
2013-03-14 03:42:00,46.9,46.4,29.93,ENE,67,0.0,-999.0,98,-99.99,,,0.00,Acu-Link.com,2013-03-14 10:42:00,
2013-03-14 03:58:00,46.4,45.9,29.94,SE,135,0.0,-999.0,98,-99.99,,,0.00,Acu-Link.com,2013-03-14 10:58:00,
2013-03-14 04:13:00,46.0,45.5,29.94,SE,135,0.0,-999.0,98,-99.99,,,0.00,Acu-Link.com,2013-03-14 11:13:00,
2013-03-14 04:28:00,45.9,45.4,29.93,South,180,0.0,-999.0,98,-99.99,,,0.00,Acu-Link.com,2013-03-14 11:28:00,
2013-03-14 04:43:00,45.3,44.8,29.94,South,180,0.0,-999.0,98,-99.99,,,0.00,Acu-Link.com,2013-03-14 11:43:00,
2013-03-14 04:58:00,44.8,44.3,29.95,South,180,0.0,-999.0,98,-99.99,,,0.00,Acu-Link.com,2013-03-14 11:58:00,
2013-03-14 05:13:00,44.4,43.9,29.94,South,180,0.0,-999.0,98,-99.99,,,0.00,Acu-Link.com,2013-03-14 12:13:00,
2013-03-14 05:28:00,44.1,43.6,29.94,SE,135,0.0,-999.0,98,-99.99,,,0.00,Acu-Link.com,2013-03-14 12:28:00,
2013-03-14 05:43:00,44.2,43.7,29.93,East,90,0.0,-999.0,98,-99.99,,,0.00,Acu-Link.com,2013-03-14 12:43:00,
2013-03-14 05:58:00,44.4,43.9,29.95,SE,135,0.0,-999.0,98,-99.99,,,0.00,Acu-Link.com,2013-03-14 12:58:00,
2013-03-14 06:14:00,44.6,44.1,29.94,North,0,0.0,-999.0,98,-99.99,,,0.00,Acu-Link.com,2013-03-14 13:14:00,
2013-03-14 06:29:00,44.4,43.9,29.96,South,180,0.0,-999.0,98,-99.99,,,0.00,Acu-Link.com,2013-03-14 13:29:00,
2013-03-14 06:44:00,43.9,43.4,29.95,South,180,0.0,-999.0,98,-99.99,,,0.00,Acu-Link.com,2013-03-14 13:44:00,
2013-03-14 06:59:00,43.5,43.0,29.94,SE,135,0.0,-999.0,98,-99.99,,,0.00,Acu-Link.com,2013-03-14 13:59:00,
2013-03-14 07:14:00,43.9,43.4,29.95,West,270,0.0,-999.0,98,-99.99,,,0.00,Acu-Link.com,2013-03-14 14:14:00,
2013-03-14 07:29:00,43.7,43.2,29.95,NE,45,0.0,-999.0,98,-99.99,,,0.00,Acu-Link.com,2013-03-14 14:29:00,
2013-03-14 07:44:00,43.7,43.2,29.95,West,270,0.0,-999.0,98,-99.99,,,0.00,Acu-Link.com,2013-03-14 14:44:00,
2013-03-14 07:59:00,44.6,44.1,29.95,ENE,67,0.0,-999.0,98,-99.99,,,0.00,Acu-Link.com,2013-03-14 14:59:00,
2013-03-14 08:14:00,45.9,45.4,29.95,SSW,202,0.0,-999.0,98,-99.99,,,0.00,Acu-Link.com,2013-03-14 15:14:00,
2013-03-14 08:30:00,50.9,50.4,29.95,WNW,292,0.0,-999.0,98,-99.99,,,0.00,Acu-Link.com,2013-03-14 15:30:00,
2013-03-14 08:45:00,59.4,58.8,29.96,WSW,247,0.0,-999.0,98,-99.99,,,0.00,Acu-Link.com,2013-03-14 15:45:00,
2013-03-14 09:00:00,65.7,65.1,29.97,ESE,112,0.0,-999.0,98,-99.99,,,0.00,Acu-Link.com,2013-03-14 16:00:00,
2013-03-14 09:15:00,73.6,-32.7,29.98,ENE,67,1.1,-999.0,1,-99.99,,,0.00,Acu-Link.com,2013-03-14 16:15:00,
2013-03-14 09:30:00,79.2,-29.3,29.97,NE,45,0.0,-999.0,1,-99.99,,,0.00,Acu-Link.com,2013-03-14 16:30:00,
2013-03-14 09:45:00,79.7,-29.0,29.96,East,90,0.0,-999.0,1,-99.99,,,0.00,Acu-Link.com,2013-03-14 16:45:00,
2013-03-14 10:00:00,83.7,-26.6,29.97,NNW,337,1.7,-999.0,1,-99.99,,,0.00,Acu-Link.com,2013-03-14 17:00:00,
2013-03-14 10:15:00,84.4,-26.2,29.97,North,0,0.0,-999.0,1,-99.99,,,0.00,Acu-Link.com,2013-03-14 17:15:00,
2013-03-14 10:30:00,86.5,-25.0,29.97,SW,225,2.2,-999.0,1,-99.99,,,0.00,Acu-Link.com,2013-03-14 17:30:00,
2013-03-14 10:46:00,88.7,-23.7,29.97,North,0,2.2,-999.0,1,-99.99,,,0.00,Acu-Link.com,2013-03-14 17:46:00,
2013-03-14 11:01:00,90.1,-22.9,29.96,NE,45,0.0,-999.0,1,-99.99,,,0.00,Acu-Link.com,2013-03-14 18:01:00,
2013-03-14 11:16:00,92.8,-21.3,29.96,SW,225,1.7,-999.0,1,-99.99,,,0.00,Acu-Link.com,2013-03-14 18:16:00,
2013-03-14 11:31:00,93.4,-20.9,29.96,East,90,2.2,-999.0,1,-99.99,,,0.00,Acu-Link.com,2013-03-14 18:31:00,
2013-03-14 12:31:00,88.9,-23.6,29.95,West,270,2.7,-999.0,1,-99.99,,,0.00,Acu-Link.com,2013-03-14 19:31:00,
2013-03-14 12:46:00,85.8,-25.4,29.95,SSW,202,3.7,-999.0,1,-99.99,,,0.00,Acu-Link.com,2013-03-14 19:46:00,
2013-03-14 13:01:00,87.3,-24.5,29.94,West,270,4.2,-999.0,1,-99.99,,,0.00,Acu-Link.com,2013-03-14 20:01:00,
2013-03-14 13:17:00,84.6,-26.1,29.94,SSE,157,3.2,-999.0,1,-99.99,,,0.00,Acu-Link.com,2013-03-14 20:17:00,
2013-03-14 13:32:00,82.2,-27.5,29.94,WSW,247,7.3,-999.0,1,-99.99,,,0.00,Acu-Link.com,2013-03-14 20:32:00,
2013-03-14 13:47:00,81.9,-27.7,29.93,ESE,112,5.8,-999.0,1,-99.99,,,0.00,Acu-Link.com,2013-03-14 20:47:00,
2013-03-14 14:02:00,81.9,-27.7,29.93,SW,225,5.3,-999.0,1,-99.99,,,0.00,Acu-Link.com,2013-03-14 21:02:00,
2013-03-14 14:32:00,83.3,-26.9,29.93,SW,225,4.2,-999.0,1,-99.99,,,0.00,Acu-Link.com,2013-03-14 21:32:00,
2013-03-14 14:47:00,84.4,-26.2,29.92,SW,225,2.7,-999.0,1,-99.99,,,0.00,Acu-Link.com,2013-03-14 21:47:00,
2013-03-14 15:02:00,83.3,-26.9,29.92,SSE,157,3.7,-999.0,1,-99.99,,,0.00,Acu-Link.com,2013-03-14 22:02:00,
2013-03-14 15:18:00,84.7,-26.1,29.91,NNE,22,3.2,-999.0,1,-99.99,,,0.00,Acu-Link.com,2013-03-14 22:18:00,
2013-03-14 15:33:00,84.7,-26.1,29.91,WNW,292,3.7,-999.0,1,-99.99,,,0.00,Acu-Link.com,2013-03-14 22:33:00,
2013-03-14 15:48:00,84.4,-26.2,29.91,West,270,3.7,-999.0,1,-99.99,,,0.00,Acu-Link.com,2013-03-14 22:48:00,
2013-03-14 16:03:00,83.7,-26.6,29.92,NNW,337,2.2,-999.0,1,-99.99,,,0.00,Acu-Link.com,2013-03-14 23:03:00,
2013-03-14 16:18:00,84.2,-26.3,29.90,SW,225,2.7,-999.0,1,-99.99,,,0.00,Acu-Link.com,2013-03-14 23:18:00,
2013-03-14 16:33:00,84.7,-26.1,29.90,NW,315,2.2,-999.0,1,-99.99,,,0.00,Acu-Link.com,2013-03-14 23:33:00,
2013-03-14 16:48:00,83.7,-26.6,29.90,WSW,247,2.2,-999.0,1,-99.99,,,0.00,Acu-Link.com,2013-03-14 23:48:00,
2013-03-14 17:03:00,84.0,-26.5,29.89,West,270,2.7,-999.0,1,-99.99,,,0.00,Acu-Link.com,2013-03-15 00:03:00,
2013-03-14 17:18:00,82.8,-27.2,29.89,WSW,247,1.1,-999.0,1,-99.99,,,0.00,Acu-Link.com,2013-03-15 00:18:00,
2013-03-14 17:33:00,80.2,-28.7,29.90,WSW,247,4.2,-999.0,1,-99.99,,,0.00,Acu-Link.com,2013-03-15 00:33:00,
2013-03-14 17:50:00,78.3,-29.9,29.88,West,270,4.2,-999.0,1,-99.99,,,0.00,Acu-Link.com,2013-03-15 00:50:00,
2013-03-14 18:05:00,77.4,-30.4,29.88,SSE,157,3.2,-999.0,1,-99.99,,,0.00,Acu-Link.com,2013-03-15 01:05:00,
2013-03-14 18:20:00,76.3,-31.0,29.88,SW,225,5.8,-999.0,1,-99.99,,,0.00,Acu-Link.com,2013-03-15 01:20:00,
2013-03-14 18:35:00,75.2,-31.7,29.88,South,180,3.7,-999.0,1,-99.99,,,0.00,Acu-Link.com,2013-03-15 01:35:00,
2013-03-14 18:50:00,72.9,-33.1,29.88,SSW,202,5.8,-999.0,1,-99.99,,,0.00,Acu-Link.com,2013-03-15 01:50:00,
2013-03-14 19:05:00,71.8,-33.7,29.88,SW,225,5.8,-999.0,1,-99.99,,,0.00,Acu-Link.com,2013-03-15 02:05:00,
2013-03-14 19:20:00,71.1,-34.2,29.88,South,180,0.0,-999.0,1,-99.99,,,0.00,Acu-Link.com,2013-03-15 02:20:00,
2013-03-14 19:51:00,67.1,-36.6,29.87,NNE,22,0.0,-999.0,1,-99.99,,,0.00,Acu-Link.com,2013-03-15 02:51:00,
2013-03-14 20:06:00,65.5,-37.5,29.87,ESE,112,0.0,-999.0,1,-99.99,,,0.00,Acu-Link.com,2013-03-15 03:06:00,
2013-03-14 20:21:00,64.6,64.0,29.87,East,90,0.0,-999.0,98,-99.99,,,0.00,Acu-Link.com,2013-03-15 03:21:00,
2013-03-14 20:36:00,63.0,62.4,29.88,ENE,67,0.0,-999.0,98,-99.99,,,0.00,Acu-Link.com,2013-03-15 03:36:00,
2013-03-14 20:51:00,61.5,60.9,29.88,ENE,67,0.0,-999.0,98,-99.99,,,0.00,Acu-Link.com,2013-03-15 03:51:00,
2013-03-14 21:07:00,60.8,60.2,29.88,East,90,0.0,-999.0,98,-99.99,,,0.00,Acu-Link.com,2013-03-15 04:07:00,
2013-03-14 21:22:00,59.5,58.9,29.88,SE,135,0.0,-999.0,98,-99.99,,,0.00,Acu-Link.com,2013-03-15 04:22:00,
2013-03-14 21:37:00,58.8,58.2,29.88,South,180,0.0,-999.0,98,-99.99,,,0.00,Acu-Link.com,2013-03-15 04:37:00,
2013-03-14 21:52:00,57.9,57.3,29.89,SSE,157,0.0,-999.0,98,-99.99,,,0.00,Acu-Link.com,2013-03-15 04:52:00,
2013-03-14 22:07:00,57.4,56.8,29.88,South,180,0.0,-999.0,98,-99.99,,,0.00,Acu-Link.com,2013-03-15 05:07:00,
2013-03-14 22:22:00,56.5,55.9,29.89,ESE,112,0.0,-999.0,98,-99.99,,,0.00,Acu-Link.com,2013-03-15 05:22:00,
2013-03-14 22:37:00,56.1,55.5,29.88,ESE,112,0.0,-999.0,98,-99.99,,,0.00,Acu-Link.com,2013-03-15 05:37:00,
2013-03-14 22:52:00,55.4,54.8,29.89,SE,135,0.0,-999.0,98,-99.99,,,0.00,Acu-Link.com,2013-03-15 05:52:00,
2013-03-14 23:07:00,55.2,54.6,29.89,SE,135,0.0,-999.0,98,-99.99,,,0.00,Acu-Link.com,2013-03-15 06:07:00,
2013-03-14 23:23:00,54.7,54.1,29.89,East,90,0.0,-999.0,98,-99.99,,,0.00,Acu-Link.com,2013-03-15 06:23:00,
2013-03-14 23:38:00,54.1,53.5,29.89,SE,135,0.0,-999.0,98,-99.99,,,0.00,Acu-Link.com,2013-03-15 06:38:00,
2013-03-14 23:53:00,54.0,53.4,29.89,SSW,202,0.0,-999.0,98,-99.99,,,0.00,Acu-Link.com,2013-03-15 06:53:00,